Weather History for KTUS - September, 2012

Change the Weather History Date:

Saturday, September 8, 2012

  Actual Average Record
Temperature  
Mean Temperature 84 °F 84 °F  
Max Temperature 92 °F 97 °F 105 °F (1990)
Min Temperature 75 °F 71 °F 58 °F (1912)
Degree Days  
Heating Degree Days 0 0  
Month to date heating degree days 0 0  
Since 1 July heating degree days 0 0  
Cooling Degree Days 19 19  
Month to date cooling degree days 156 155  
Year to date cooling degree days 2901 2565  
Growing Degree Days 33 (Base 50)    
Moisture  
Dew Point 62 °F    
Average Humidity 58    
Maximum Humidity 82    
Minimum Humidity 34    
Precipitation  
Precipitation 0.00 in 0.05 in 1.84 in (2014)
Month to date precipitation T 0.44  
Year to date precipitation 6.32 8.35  
Snow  
Snow 0.00 in - - ()
Month to date snowfall 0.0  
Snow Depth 0.00 in    
Sea Level Pressure  
Sea Level Pressure 29.89 in    
Wind  
Wind Speed 12 mph (ESE)    
Max Wind Speed 25 mph    
Max Gust Speed 32 mph    
Visibility 10 miles    
Events      
T = Trace of Precipitation, MM = Missing Value Source: NWS Daily Summary

Daily Weather History Graph

Daily Weather History Graph

Search for Another Location

Airport or City:

Trip Planner

Search our weather history database for the weather conditions in past years. The results will help you decide how hot, cold, wet, or windy it might be!

Date:

Astronomy

Sep. 08, 2012 Rise Set
Actual Time 6:03 AM MST 6:38 PM MST
Civil Twilight 5:39 AM MST 7:02 PM MST
Nautical Twilight 5:10 AM MST 7:31 PM MST
Astronomical Twilight 4:40 AM MST 8:01 PM MST
Moon 11:51 PM MST (9/8) 1:22 PM MST (9/8)
Length of Visible Light 13h 23m
Length of Day
12h 34m
Waning Gibbous, 48% of the Moon is Illuminated
Sep 8
Waning Gibbous
Sep 15
New
Sep 22
First Quarter
Sep 29
Full
Oct 8
Last Quarter

Hourly Weather History & Observations

Time (MST) Temp. Heat Index Dew Point Humidity Pressure Visibility Wind Dir Wind Speed Gust Speed Precip Events Conditions
12:53 AM 75.9 °F - 69.1 °F 79% 29.89 in 10.0 mi SSE 3.5 mph - N/A   Clear
1:53 AM 75.9 °F - 69.1 °F 79% 29.88 in 10.0 mi ESE 4.6 mph - N/A   Scattered Clouds
2:53 AM 75.9 °F - 69.1 °F 79% 29.87 in 10.0 mi Calm Calm - N/A   Clear
3:53 AM 75.9 °F - 69.1 °F 79% 29.86 in 10.0 mi Calm Calm - N/A   Clear
4:53 AM 75.9 °F - 69.1 °F 79% 29.88 in 10.0 mi Calm Calm - N/A   Clear
5:53 AM 75.9 °F - 69.1 °F 79% 29.89 in 10.0 mi SSW 3.5 mph - N/A   Clear
6:53 AM 75.9 °F - 70.0 °F 82% 29.91 in 10.0 mi SE 4.6 mph - N/A   Clear
7:53 AM 80.1 °F 82.7 °F 68.0 °F 67% 29.92 in 10.0 mi NE 3.5 mph - N/A   Scattered Clouds
8:53 AM 84.0 °F 84.9 °F 63.0 °F 49% 29.93 in 10.0 mi East 11.5 mph 19.6 mph N/A   Clear
9:53 AM 84.0 °F 84.9 °F 63.0 °F 49% 29.93 in 10.0 mi ESE 15.0 mph 24.2 mph N/A   Clear
10:53 AM 86.0 °F 86.3 °F 62.1 °F 44% 29.93 in 10.0 mi East 12.7 mph 25.3 mph N/A   Partly Cloudy
11:53 AM 87.1 °F 87.5 °F 62.1 °F 43% 29.91 in 10.0 mi ENE 13.8 mph 21.9 mph N/A   Scattered Clouds
12:21 PM 89.6 °F 89.5 °F 60.8 °F 38% 30.04 in 10.0 mi East 17.3 mph 24.2 mph N/A   Partly Cloudy
12:53 PM 88.0 °F 87.9 °F 61.0 °F 40% 29.90 in 10.0 mi ESE 15.0 mph 27.6 mph N/A   Partly Cloudy
1:53 PM 89.1 °F 88.8 °F 60.1 °F 38% 29.87 in 10.0 mi East 13.8 mph 27.6 mph N/A   Partly Cloudy
2:53 PM 91.0 °F 90.5 °F 60.1 °F 35% 29.84 in 10.0 mi ESE 17.3 mph 25.3 mph N/A   Partly Cloudy
3:53 PM 91.0 °F 90.2 °F 59.0 °F 34% 29.83 in 10.0 mi ESE 19.6 mph 29.9 mph N/A   Clear
4:53 PM 87.1 °F 86.5 °F 59.0 °F 39% 29.83 in 10.0 mi ESE 21.9 mph 29.9 mph N/A   Clear
5:53 PM 84.9 °F 84.2 °F 57.9 °F 40% 29.84 in 10.0 mi ESE 21.9 mph 29.9 mph N/A   Clear
6:53 PM 82.0 °F 81.7 °F 57.0 °F 42% 29.87 in 10.0 mi East 13.8 mph 20.7 mph N/A   Mostly Cloudy
7:53 PM 81.0 °F 81.1 °F 57.9 °F 45% 29.88 in 10.0 mi ESE 15.0 mph 24.2 mph N/A   Clear
8:53 PM 80.1 °F 80.4 °F 57.0 °F 45% 29.92 in 10.0 mi ESE 17.3 mph 26.5 mph N/A   Clear
9:53 PM 79.0 °F - 57.0 °F 47% 29.92 in 10.0 mi ESE 19.6 mph 27.6 mph N/A   Clear
10:53 PM 78.1 °F - 57.0 °F 48% 29.92 in 10.0 mi ESE 15.0 mph 23.0 mph N/A   Mostly Cloudy
11:53 PM 78.1 °F - 57.0 °F 48% 29.90 in 10.0 mi ESE 16.1 mph - N/A   Clear